Location: Red Deer
(52.2681°N, 113.8112°W)
Time: 19:30:22
(UTC-07:00)

BlueWalker 3 - Pass Details

Date: 01 December 2022
Orbit: 499 x 517 km, 53.2° (Epoch: 05 February)

Event Time Altitude Azimuth Distance (km) Brightness Sun altitude
Rises 17:13:57 0° 249° (WSW) 2,626 8.1 -7.1°
Reaches altitude 10° 17:16:10 10° 248° (WSW) 1,738 6.5 -7.4°
Maximum altitude 17:20:06 78° 161° (SSE) 528 2.0 -7.9°
Enters shadow 17:23:54 11° 76° (ENE) 1,688 4.0 -8.4°
